When you browse on this site, cookies collect data to enhance your experience and personalize the content and advertising you see.
Visit our Privacy Policy to learn more. By continuing to use the site, you agree to this use of cookies and data.
  • In Portugal
  • List of Countries
  • For 7 days
  • Water Temperature
  • Satellite Maps
  • Weather Map
  • Weather Widgets
  • user-avatar
    Login

    Hourly Weather Aleksandrovka

    Today, 25 May, Saturday

    Time Temperature Precipitation Wind Pressure Humidity
    00:00 +17°C° 0 mm 2 mps 743 mmHg 87%
    01:00 +16°C° 0 mm 2 mps 743 mmHg 88%
    02:00 +16°C° 0 mm 2 mps 743 mmHg 89%
    03:00 +16°C° 0 mm 2 mps 743 mmHg 88%
    04:00 +16°C° 0 mm 2 mps 743 mmHg 87%
    05:00 +16°C° 0 mm 2 mps 743 mmHg 86%
    06:00 +17°C° 0 mm 2 mps 743 mmHg 79%
    07:00 +19°C° 0 mm 2 mps 743 mmHg 71%
    08:00 +21°C° 0 mm 2 mps 742 mmHg 64%
    09:00 +23°C° 0 mm 2 mps 742 mmHg 61%
    10:00 +24°C° 0 mm 3 mps 742 mmHg 58%
    11:00 +25°C° 0 mm 3 mps 742 mmHg 55%
    12:00 +25°C° 0.5 mm 3 mps 742 mmHg 58%
    13:00 +25°C° 0.5 mm 4 mps 741 mmHg 60%
    14:00 +25°C° 0.5 mm 4 mps 741 mmHg 62%
    15:00 +24°C° 0.7 mm 3 mps 741 mmHg 65%
    16:00 +24°C° 0.7 mm 3 mps 741 mmHg 68%
    17:00 +23°C° 0.7 mm 2 mps 741 mmHg 71%
    18:00 +21°C° 0.2 mm 2 mps 741 mmHg 76%
    19:00 +20°C° 0.2 mm 2 mps 740 mmHg 80%
    20:00 +20°C° 0.2 mm 1 mps 740 mmHg 84%
    21:00 +18°C° 0 mm 2 mps 740 mmHg 85%
    22:00 +18°C° 0 mm 2 mps 740 mmHg 87%
    23:00 +17°C° 0 mm 2 mps 740 mmHg 88%

    Tomorrow, 26 May, Sunday

    Time Temperature Precipitation Wind Pressure Humidity
    00:00 +17°C° 1.4 mm 2 mps 740 mmHg 89%
    01:00 +17°C° 1.4 mm 2 mps 740 mmHg 91%
    02:00 +16°C° 1.4 mm 2 mps 740 mmHg 92%
    03:00 +16°C° 1 mm 2 mps 740 mmHg 92%
    04:00 +17°C° 1 mm 3 mps 740 mmHg 92%
    05:00 +17°C° 1 mm 3 mps 740 mmHg 92%
    06:00 +18°C° 0.6 mm 3 mps 741 mmHg 88%
    07:00 +19°C° 0.6 mm 3 mps 741 mmHg 84%
    08:00 +20°C° 0.6 mm 4 mps 741 mmHg 80%
    09:00 +21°C° 0.6 mm 4 mps 741 mmHg 74%
    10:00 +22°C° 0.6 mm 4 mps 741 mmHg 69%
    11:00 +23°C° 0.6 mm 4 mps 741 mmHg 64%
    12:00 +25°C° 0.9 mm 5 mps 741 mmHg 64%
    13:00 +25°C° 0.9 mm 5 mps 742 mmHg 64%
    14:00 +24°C° 0.9 mm 6 mps 742 mmHg 65%
    15:00 +23°C° 0.7 mm 5 mps 742 mmHg 68%
    16:00 +23°C° 0.7 mm 5 mps 742 mmHg 72%
    17:00 +22°C° 0.7 mm 5 mps 742 mmHg 75%
    18:00 +21°C° 0.5 mm 4 mps 743 mmHg 79%
    19:00 +20°C° 0.5 mm 4 mps 743 mmHg 83%
    20:00 +18°C° 0.5 mm 4 mps 744 mmHg 87%
    21:00 +18°C° 0 mm 4 mps 744 mmHg 88%
    22:00 +17°C° 0 mm 4 mps 745 mmHg 90%
    23:00 +16°C° 0 mm 3 mps 745 mmHg 91%

    Day after tomorrow, 27 May, Monday

    Time Temperature Precipitation Wind Pressure Humidity
    00:00 +16°C° 0 mm 3 mps 746 mmHg 92%
    01:00 +16°C° 0 mm 3 mps 746 mmHg 92%
    02:00 +14°C° 0 mm 3 mps 747 mmHg 93%
    03:00 +14°C° 0 mm 3 mps 747 mmHg 92%
    04:00 +14°C° 0 mm 3 mps 747 mmHg 92%
    05:00 +16°C° 0 mm 3 mps 748 mmHg 92%
    06:00 +17°C° 0 mm 2 mps 748 mmHg 84%
    07:00 +19°C° 0 mm 2 mps 749 mmHg 77%
    08:00 +21°C° 0 mm 2 mps 749 mmHg 70%
    09:00 +23°C° 0 mm 2 mps 749 mmHg 64%
    10:00 +24°C° 0 mm 3 mps 750 mmHg 59%
    11:00 +25°C° 0 mm 3 mps 750 mmHg 53%
    12:00 +25°C° 0 mm 3 mps 750 mmHg 52%
    13:00 +26°C° 0 mm 3 mps 750 mmHg 52%
    14:00 +26°C° 0 mm 3 mps 750 mmHg 52%
    15:00 +26°C° 0 mm 3 mps 750 mmHg 54%
    16:00 +26°C° 0 mm 3 mps 750 mmHg 57%
    17:00 +26°C° 0 mm 2 mps 750 mmHg 59%
    18:00 +24°C° 0 mm 2 mps 750 mmHg 63%
    19:00 +22°C° 0 mm 1 mps 750 mmHg 67%
    20:00 +21°C° 0 mm 1 mps 750 mmHg 71%
    21:00 +20°C° 0 mm 1 mps 751 mmHg 72%
    22:00 +20°C° 0 mm 1 mps 751 mmHg 74%
    23:00 +19°C° 0 mm 1 mps 751 mmHg 75%

    28 May, Tuesday

    Time Temperature Precipitation Wind Pressure Humidity
    00:00 +19°C° 0 mm 1 mps 751 mmHg 75%
    01:00 +19°C° 0 mm 1 mps 751 mmHg 76%
    02:00 +17°C° 0 mm 2 mps 751 mmHg 77%
    03:00 +17°C° 0 mm 2 mps 751 mmHg 77%
    04:00 +18°C° 0 mm 2 mps 751 mmHg 78%
    05:00 +18°C° 0 mm 2 mps 751 mmHg 79%
    06:00 +20°C° 0 mm 2 mps 752 mmHg 74%
    07:00 +23°C° 0 mm 2 mps 752 mmHg 69%
    08:00 +25°C° 0 mm 2 mps 752 mmHg 64%
    09:00 +26°C° 0 mm 2 mps 752 mmHg 59%
    10:00 +27°C° 0 mm 3 mps 752 mmHg 55%
    11:00 +28°C° 0 mm 3 mps 752 mmHg 50%
    12:00 +28°C° 0 mm 3 mps 752 mmHg 49%
    13:00 +29°C° 0 mm 3 mps 751 mmHg 48%
    14:00 +29°C° 0 mm 3 mps 751 mmHg 47%
    15:00 +29°C° 0 mm 3 mps 751 mmHg 50%
    16:00 +29°C° 0 mm 2 mps 751 mmHg 54%
    17:00 +28°C° 0 mm 2 mps 751 mmHg 57%
    18:00 +26°C° 0 mm 2 mps 751 mmHg 62%
    19:00 +24°C° 0 mm 2 mps 751 mmHg 68%
    20:00 +21°C° 0 mm 2 mps 751 mmHg 74%
    21:00 +21°C° 0 mm 2 mps 751 mmHg 75%
    22:00 +20°C° 0 mm 2 mps 751 mmHg 77%
    23:00 +19°C° 0 mm 2 mps 751 mmHg 78%

    29 May, Wednesday

    Time Temperature Precipitation Wind Pressure Humidity
    00:00 +19°C° 0 mm 2 mps 751 mmHg 78%
    01:00 +18°C° 0 mm 2 mps 751 mmHg 78%
    02:00 +18°C° 0 mm 2 mps 751 mmHg 78%
    03:00 +18°C° 0 mm 2 mps 751 mmHg 79%
    04:00 +18°C° 0 mm 2 mps 751 mmHg 80%
    05:00 +19°C° 0 mm 2 mps 751 mmHg 82%
    06:00 +21°C° 0 mm 3 mps 751 mmHg 76%
    07:00 +23°C° 0 mm 4 mps 751 mmHg 70%
    08:00 +26°C° 0 mm 5 mps 751 mmHg 64%
    09:00 +27°C° 0 mm 5 mps 751 mmHg 61%
    10:00 +27°C° 0 mm 6 mps 751 mmHg 58%
    11:00 +28°C° 0 mm 6 mps 751 mmHg 56%
    12:00 +29°C° 0 mm 6 mps 750 mmHg 55%
    13:00 +29°C° 0 mm 6 mps 750 mmHg 54%
    14:00 +29°C° 0 mm 6 mps 750 mmHg 53%
    15:00 +29°C° 0 mm 5 mps 750 mmHg 56%
    16:00 +29°C° 0 mm 4 mps 750 mmHg 59%
    17:00 +28°C° 0 mm 4 mps 749 mmHg 62%
    18:00 +26°C° 0 mm 3 mps 749 mmHg 67%
    19:00 +24°C° 0 mm 3 mps 750 mmHg 72%
    20:00 +22°C° 0 mm 3 mps 750 mmHg 76%
    21:00 +21°C° 0 mm 3 mps 750 mmHg 77%
    22:00 +20°C° 0 mm 3 mps 750 mmHg 77%
    23:00 +20°C° 0 mm 3 mps 750 mmHg 78%

    30 May, Thursday

    Time Temperature Precipitation Wind Pressure Humidity
    00:00 +19°C° 0 mm 3 mps 750 mmHg 78%
    01:00 +19°C° 0 mm 3 mps 750 mmHg 78%
    02:00 +18°C° 0 mm 3 mps 750 mmHg 78%
    03:00 +18°C° 0 mm 3 mps 750 mmHg 79%
    04:00 +18°C° 0 mm 3 mps 750 mmHg 80%
    05:00 +19°C° 0 mm 3 mps 750 mmHg 81%
    06:00 +21°C° 0 mm 3 mps 750 mmHg 74%
    07:00 +23°C° 0 mm 4 mps 750 mmHg 66%
    08:00 +26°C° 0 mm 4 mps 750 mmHg 59%
    09:00 +27°C° 0 mm 4 mps 750 mmHg 54%
    10:00 +28°C° 0 mm 5 mps 750 mmHg 49%
    11:00 +30°C° 0 mm 5 mps 750 mmHg 45%
    12:00 +30°C° 0 mm 4 mps 750 mmHg 44%
    13:00 +30°C° 0 mm 4 mps 750 mmHg 44%
    14:00 +32°C° 0 mm 4 mps 750 mmHg 43%
    15:00 +31°C° 0 mm 3 mps 750 mmHg 47%
    16:00 +30°C° 0 mm 3 mps 750 mmHg 51%
    17:00 +30°C° 0 mm 2 mps 750 mmHg 55%
    18:00 +28°C° 0 mm 2 mps 750 mmHg 58%
    19:00 +26°C° 0 mm 2 mps 750 mmHg 61%
    20:00 +24°C° 0 mm 2 mps 750 mmHg 64%
    21:00 +23°C° 0 mm 2 mps 750 mmHg 65%
    22:00 +21°C° 0 mm 2 mps 750 mmHg 67%
    23:00 +21°C° 0 mm 2 mps 750 mmHg 68%
    Show more